Location: El Hornillo
(40.2499°N, 5.1036°W)
Time: 02:10:42
(UTC+00:00)

ARGOS Delta rocket - Pass Details

Date: 05 August 2024
Orbit: 632 x 831 km, 96.5° (Epoch: 10 September)

Event Time Altitude Azimuth Distance (km) Brightness Sun altitude
Exits shadow 20:30:22 - 172° (S) 3,080 6.7 -11.0°
Reaches altitude 10° 20:32:16 10° 174° (S) 2,325 6.1 -11.3°
Maximum altitude 20:37:27 76° 260° (W) 832 4.3 -12.2°
Drops below altitude 10° 20:42:53 10° 346° (NNW) 2,432 7.3 -13.0°
Sets 20:45:18 0° 348° (NNW) 3,380 8.1 -13.4°
